Погода Куминская

Погода Куминская : погода сейчас, прогноз погоды и архив. Всё, что Вы хотите узнать о погоде Куминская!

Поиск расширенной информации на нашем сайте:

Полезная информация: погода в петропавловске-камчатском

Другие новости

Новости СМИ2

Главная страница сайта

Новости сайта

03.07.2017

Напоминаем, что на нашем специализированном сайте Метеоцентр.Азия вы можете получить высокодетализированные автоматические прогнозы погоды по пунктам России, СНГ и мира в авиационном формате (включающие направление и скорость ветра, видимость, явления погоды, количество и форму облачности, нижнюю и верхнюю границу облачности).

Рекомендуем: сауны города екатеринбурга

Погода Куминская - сегодня

Время (UTC), дата Ветер
(°,м/с) 
Видим.   Явления Облачность Т
(°С)
Тd
(°С)
f(%) Тe
(°С)
Pmin
(гПа)
dP
(гПа)
Po
(мм)
O2
(г/м3)
Тmin Tmax R s Состояние
почвы
12 19.09.17 290 (З) н/о    н/о 
+10.1 +2.2 58 +11  1019.6  757  294           
18 19.09.17 тихо ()   8000 м  слаб. дождь  10/10 600 м 
[Sc]
+5.7 +4.6 93 +6  1018.1  -1.5  756  298           
21 19.09.17 тихо ()   5000 м  слаб. ливневой дождь  10/10 300 м кучево-дожд. 
[Cb cap]
+5.7 +5.4 98 +6  1016.2  -1.9  755  297           
00 20.09.17 130 (ЮВ) 50000 м  ливневой дождь  10/10 300 м кучево-дожд. 
[Cb cap]
+6.3 +5.9 97 +6  1012.9  -3.2  752  295           
03 20.09.17 140 (ЮВ) 10 км  {ливн. осадки}  10/10 300 м кучево-дожд. 
[Cb cap]
+6.9 +6.5 97 +8  1009.9  -2.9  750  294  +4.8       
06 20.09.17 210 (ЮЗ) н/о    н/о 
+8 +7.8 99 +9  1009  -0.8  749  292           
09 20.09.17 280 (З) 10 км    10/10 300 м кучево-дожд. 
[Cb cap]
+9.5 +8.7 95 +10  1009.5  0.5  750  290           
12 20.09.17 310 (СЗ) н/о    н/о 
+8.7 +8.2 97 +10  1011.4  1.9  751  292           
15 20.09.17 300 (СЗ) 21000 м  {ливн. осадки}  10/10 300 м кучево-дожд. 
[Cb cap]
+8.3 +7.3 93 +9  1012.7  1.3  752  293    +9.6  0.0     
18 20.09.17 тихо ()   35000 м  {ливн. осадки}  10/10 300 м кучево-дожд. 
[Cb cap]
+7.3 +6.9 97 +7  1013.2  0.4  752  294           
21 20.09.17 350 (С) 24000 м    10/10 300 м кучево-дожд. 
[Cb cap]
+7.5 +7.3 99 +8  1014.1  753  294           
00 21.09.17 030 (СВ) 8000 м  слаб. ливневой дождь  10/10 300 м кучево-дожд. 
[Cb cap]
+6.1 +5.8 98 +6  1016.3  755  296           
03 21.09.17 010 (С) 10 км  {ливн. осадки}  10/10 300 м кучево-дожд. 
[Cb cap]
+5.7 +5.2 97 +5  1018.6  2.3  756  298  +5.6    0.6     
06 21.09.17 360 (С) н/о    н/о 
+7.1 +5.5 90 +7  1020.6  758  297           
09 21.09.17 350 (С) 10 км    10/10 300 м кучево-дожд. 
[Cb cap]
+7.5 +6.2 91 +7  1022.3  1.7  759  297           
12 21.09.17 020 (С) н/о    н/о 
+9.6 +5 73 +11  1023.4  1.2  760  295           
18 21.09.17 тихо ()   50000 м    10/0 средняя 
[Ac As]
+4.3 +4.1 99 +4  1025.5  0.8  761  301           
21 21.09.17 310 (СЗ) 50000 м    10/0 средняя 
[Ac As]
+4.4 +3.7 95 +5  1025.6  0.1  762  301           
00 22.09.17 320 (СЗ) 50000 м    10/0 средняя 
[Ac As]
+4.4 +3.4 93 +5  1026  0.4  762  302           
03 22.09.17 340 (С) 10 км    10/10 300 м кучево-дожд. 
[Cb cap]
+4.6 +3.4 92 +4  1027.1  1.1  763  302  +2.1        влажная 
06 22.09.17 010 (С) н/о    н/о 
+5.3 +0.4 71 +5  1028.6  1.6  764  302           
09 22.09.17 360 (С) 3{11}  10 км    8/8 300 м кучево-дожд. 
[Cb cap]
+5.2 -2.4 58 +4  1029.8  1.1  765  303           
12 22.09.17 360 (С) н/о    н/о 
+5.9 -1.5 59 +5  1030.4  0.6  765  302           
15 22.09.17 340 (С) 50000 м  {ливн. осадки}  10/10 300 м кучево-дожд. 
[Cb cap]
+2.7 -2.1 71 +2  1032  1.5  766  306    +6.7  0.0     
18 22.09.17 340 (С) 50000 м    10/10 300 м кучево-дожд. 
[Cb cap]
+1.1 -2.1 79 +2  1032.2  0.1  766  308           
Время (UTC), дата Ветер
(°,м/с) 
Видим.   Явления Облачность Т
(°С)
Тd
(°С)
f(%) Тe
(°С)
Pmin
(гПа)
dP
(гПа)
Po
(мм)
O2
(г/м3)
Тmin Tmax R s Состояние
почвы

Для получения пояснительной информации подведите курсор к названию столбца.

ПОГОДА Куминская - архив

Всё, что Вы хотите узнать о погоде Куминская - удобно и подробно!

Выберите нужную дату (начиная с 1 января 2015* года) и нажмите кнопку "Найти".
Будут отображены архивные сводки погоды по пункту Куминская, начиная с указанной даты.


Отображать данные в формате CSV (для использования в таблицах Excel)


Внимание! Наш архив погоды предназначен исключительно для личного некоммерческого использования в познавательных целях. Если Вам необходимы официальные справки о состоянии погоды (для производственных, юридических, коммерческих и т.п. целей), обращайтесь в органы Росгидромета.

*Примечание: данная дата относится к архиву по метеостанциям СССР (Россия, СНГ, Балтия).
Архив по метеостанциям Зарубежной Европы и Азии (кроме Китая) хранится 10 дней, по другим регионам земного шара (Китай, Африка, Америка, Австралия, Океания) - 1 день.

Куминская - район местоположения метеостанции


Название, широта, долгота, высота метеостанции:
Куминская 58.8°ш. 66°д. 64 м над ур. моря [Российская Федерация]

Дополнительная информация

В oтличие oт бoльшинства пoгoдных сайтoв мы публикуем пoдрoбную метеoинфoрмацию в детальнoм прoфессиoнальнoм фoрмате.

Характеристики температуры и влажнoсти вoздуха измеряются на высoте 2 м в тени вдали oт зданий и деревьев.
Скoрoсть ветра измеряется на высoте 10 м (на урoвне рoста челoвека скoрoсть ветра ниже в 1.5-2 раза). Если метеoстанция нахoдится в гoрoде или в лесу, тo скoрoсть ветра занижена на 2-4 м/с пo сравнению с oткрытым местoм. Скoрoсть ветра над акватoриями крупных рек и oзёр, а также на вершинах хoлмoв на 2-5 м/с выше, чем в oбычных услoвиях.
Атмoсфернoе давление в разных тoчках местнoсти мoжет значительнo oтличаться oт давления на метеoстанции, в зависимoсти oт услoвий рельефа (при пoдъёме на 10 м давление пoнижается примернo на 1 мм рт.ст.).